ARIANE 5 DEB (SYLDA), 41947

Orbit data source: Space-Track

ARIANE 5 DEB (SYLDA), 41947 is space debris in HEO originally from a launch on Tue, 14 Feb 2017 UTC launched from the French Guiana (FRGUI). Debris objects in space refer to the collection of defunct objects orbiting the Earth. Examples of debris include non-operational satellites, rocket bodies, and fragments generated from explosions, collisions, or faulty payload assembly.

Loading next visibility...
Identifier
41947, 2017-007D
Orbit
HEO
Country
Flag of FRFR
Related business
Manufacturer
ADS/Bremen
Mission
Spacecraft
Bus & Motor
SYLDA 5, Unknown motor
Mass
440 kg wet, 440 kg dry
Launch date (UTC)
2017-02-14 (9 years ago)
Launch vehicle
Unknown
Launch site
French Guiana (FRGUI)
Object type
Payload
Rocket body
Debris
Shape & HBR
Cyl, 2.8 m
Radar Cross Section
27.391 m², Large (>1 m²)

Expand to show TLE details & history
Last TLE update: 10 hours ago

TLE from 10 hours ago
0 ARIANE 5 DEB (SYLDA)
1 41947U 17007D   26035.23774375  .00283250  00000-0  62903-2 0  9996
2 41947   3.9604 324.7274 4747622  95.0090 318.7652  6.17865040104478
Epoch: 2026-02-04T05:42Z
TLE epoch observation values (Epoch: 2026-02-04T05:42:21.059Z)
Latitude
0.00001°
Longitude
104.82269°
Altitude
3,753.996 km
Speed
6.849 km/s
True Right ascension
21h 39m 16s
True Declination
0° 00' 00"
Sunlit
Object was in daylight at epoch
Visualization orbit readout
Latitude
Unknown
Longitude
Unknown
Altitude
Unknown
Speed
Unknown
Apparent Right ascension
Unknown
Apparent Declination
Unknown
Sunlit
N/A
Visualization observer readout
Local Sidereal Time
17:41:21
Azimuth
Unknown
Elevation
Unknown
Doppler factor
Unknown
Orbital elements
Apogee altitude
12,130.398 km
Perigee altitude
213.693 km
Semi-major axis
12,550.182 km
Eccentricity
0.47476
Inclination
3.9604°
RAAN
324.7274°
Arg. of periapsis
95.009°
True anomaly
265.04922°
Mean anomaly
318.7652°
Eccentric anomaly
293.89478°
Mean motion
1.54372 °/min
Orbital period
233.2 mins
BSTAR
0.0062903
Loading maneuver chart data...
Computing Atmospheric mass density...
Loading historical data...
Loading historical data...
Loading historical data...
Loading historical data...
Loading historical data...
Loading historical data...
Loading historical data...
Other satellites on launch #7 in the year 2017 (2017-02-14 UTC)

Documentation

Showing up to 5 results
|